Flag for Germany Weather past 2 weeks in Dorsten, North Rhine-Westphalia, Germany

Now
67 °F

Overcast.


Feels Like: 67 °F
Forecast: 52 / 67 °F
Wind: 5 mph from Southwest

Location: Essen

Current Time: Sep 1, 2015 at 2:39:49 AM

Latest Report: Sep 1, 2015 at 2:00 AM


Visibility: 9 mi

Pressure: 29.83 "Hg

Humidity: 88%

Dew point: 64 °F

Location of DorstenLocation

Historic Weather in Dorsten — Graph

°F

Dorsten temperature yesterday

Maximum temperature yesterday: 88 °F (at 3:00 PM)
Minimum temperature yesterday: 68 °F (at 7:00 AM)
Average temperature yesterday: 77 °F

Past Weeks' High & Low Weather Summary

 TemperatureHumidityPressure
High88 °F (Aug 31, 3:00 PM)100% (Aug 17, 1:00 AM)30.25 "Hg (Aug 17, 1:00 AM)
Low51 °F (Aug 19, 4:00 AM)30% (Aug 31, 6:00 PM)29.53 "Hg (Aug 24, 5:00 PM)
Average65 °F73%29.97 "Hg
* Reported Aug 17 1:00 AM — Sep 1 1:00 AM, Dorsten, Weather by CustomWeather, © 2015

Note: Actual official high and low records may vary slightly from our data, if they occured in-between our weather recording intervals... More about our weather records

Advertising

Dorsten weather history for previous 24 hours

 ConditionsComfort  
Time TempWeatherWind HumidityBarometerVisibility
1:00 AM
Tue, Sep 1
68 °FOvercast.5 mph92%29.82 "Hg7 mi
11:00 PM
Mon, Aug 31
68 °FOvercast.5 mph90%29.82 "Hg22 mi
10:00 PM69 °FLight rain. Low clouds.3 mph86%29.83 "Hg4 mi
9:00 PM72 °FOvercast.5 mph73%29.81 "Hg37 mi
8:00 PM77 °FPartly sunny.5 mph67%29.78 "Hg14 mi
7:00 PM85 °FScattered clouds.6 mph40%29.75 "Hg25 mi
6:00 PM87 °FSunny.8 mph30%29.75 "Hg13 mi
5:00 PM88 °FSunny.6 mph33%29.75 "Hg16 mi
4:00 PM88 °FSunny.5 mph38%29.75 "Hg11 mi
3:00 PM88 °FSunny.5 mph43%29.77 "Hg16 mi
2:00 PM86 °FSunny.5 mph46%29.79 "Hg11 mi
1:00 PM84 °FSunny.6 mph49%29.81 "Hg12 mi
12:00 PM82 °FPassing clouds.5 mph49%29.83 "Hg11 mi
11:00 AM80 °FSunny.3 mph55%29.84 "Hg28 mi
10:00 AM78 °FPassing clouds.5 mph61%29.85 "Hg19 mi
9:00 AM71 °FSunny.3 mph88%29.86 "Hg5 mi
8:00 AM69 °FFog.2 mph92%29.88 "Hg3 mi
7:00 AM68 °FOvercast.3 mph93%29.89 "Hg6 mi
5:00 AM68 °FOvercast.7 mph86%29.94 "Hg22 mi
4:00 AM69 °FOvercast.3 mph80%29.95 "Hg40 mi
3:00 AM70 °FOvercast.5 mph75%29.96 "Hg43 mi
2:00 AM72 °FOvercast.6 mph71%29.99 "Hg31 mi
Weather by CustomWeather, © 2015

See weather overviewHow to use our weather pages